カタログに戻る

STARLINK-36819

運用中通信SSO
NORAD 67967·PAYLOAD·🇺🇸 United States

打ち上げ Feb 25, 2026 から Vandenberg Space Force Base

Loading…

次のパス (今後24時間)

TLE

最新Source: CelesTrak SupGP

元期: Sep 15, 2026, 03:56 UTC

1 67967C 26038G   26258.16437500 -.00063203  00000+0 -19626-2 0  2582
2 67967  97.2845 266.5496 0001567  89.1899 278.2673 15.33461265    15

AllMySatでSTARLINK-36819をリアルタイム追跡

Download on the App Store